895  
SXUS52 KCHS 222127  
OSOCHS  
 
MARINE OBSERVATIONS  
NATIONAL WEATHER SERVICE CHARLESTON SC  
500 PM EDT MON MAY 22 2017  
   
..DOWNTOWN CHARLESTON AND HARBOR
 
 
 
CITY SKY/WX TMP DP RH WIND PRES REMARKS  
WATERFRONT PRK N/A 78 74 87 S12 29.93F  
   
..LAKE MOULTRIE
 
 
 
CITY SKY/WX TMP DP RH WIND PRES REMARKS  
PINOPOLIS N/A 82 72 69 VRB2 29.86F  
   
..LAKE AND SUPPLEMENTAL COASTAL OBSERVATIONS
 
 
 
STATION/POSITION TIME TEMP WIND PRES WAVE SWELL  
AIR SEA DIR/SP/G HT/PER HT/PER/DIR  
(UTC) (F) (DEG/KT/KT) (MB) (FT/S) (FT/S/D)  
FORT PULASKI 2100 78 80 180/ 6/ 10 1015.1  
SAPELO ISLAND 2100 77 120/ 1 1014.0  
WINYAH BAY 2030 80 190/ 12 1014.0F  
LAKE MURRAY 2120 72 190/ 7/ 9 1014.6R  
ACE BASIN NERRS 2045 78 170/ 1 1015.0S  
 
   
..C-MAN AND BUOY OBSERVATIONS
 
 
 
STATION/POSITION TIME TEMP WIND PRES WAVE SWELL  
AIR SEA DIR/SP/G HT/PER HT/PER/DIR  
(UTC) (F) (DEG/KT/KT) (MB) (FT/S) (FT/S/D)  
BUOY 41004 2110 78 78 190/ 12/ 16 1014.4  
BUOY 41008 2050 77 78 170/ 12/ 14 1014.1F 2/ 4 2/130/ 6  
FOLLY BEACH CMAN 2100 78 180/ 14/ 15 1015.0F  
CAPERS NS BUOY 2108 80 78 200/ 14/ 17 1014.0F  
FRIPP NS BUOY 2108 78 79 180/ 12/ 16 1014.4R  
5E ST. MARYS GA 2100 79 N/A 3/ 3  
 
 
STATION/POSITION TIME TEMP WIND PRES WAVE SWELL  
AIR SEA DIR/SP/G HT/PER HT/PER/DIR  
(UTC) (F) (DEG/KT/KT) (MB) (FT/S) (FT/S/D)  
FRYING PAN BUOY 2110 78 78 180/ 14/ 17 1014.3  
BUOY 41025 2050 77 78 190/ 14/ 17 1014.9F 4/ 8 3/ 80/ 8  
CAPE LOOKOUT NC 2100 78 200/ 13/ 16 1014.2F  
BUOY 41002 2050 76 79 170/ 4/ 8 1017.5F 3/ 8 3/ 30/ 8  
BUOY 41010 2110 78 80 150/ 12/ 14 1016.1  
ST AUGUSTINE FL 2100 78 81 150/ 17/ 20 1015.0F  
 

 
 
 
CLICK HERE TO GO TO PREVIOUS BULLETINS.

The Nexlab SC Page
The Nexlab GA Page Main Text Page